Location: Góry Miechowskie
(50.3599°N, 20.1803°E)
Time: 15:05:10
(UTC+00:00)

Vanguard 1 Rocket - Pass Details

Date: 19 September 2024
Orbit: 650 x 4218 km, 34.3° (Epoch: 07 October)

Event Time Altitude Azimuth Distance (km) Brightness Sun altitude
Rises 03:21:04 0° 248° (WSW) 5,673 - -10.3°
Exits shadow 03:24:11 10° 243° (WSW) 5,078 10.6 -9.8°
Reaches altitude 10° 03:24:18 10° 243° (WSW) 5,057 10.5 -9.8°
Maximum altitude 03:39:37 49° 175° (S) 4,160 10.7 -7.5°
Drops below altitude 10° 04:03:03 10° 111° (ESE) 7,422 13.2 -3.8°
Sets 04:09:10 0° 106° (ESE) 8,403 13.8 -2.8°
